Time,TemperatureF,DewpointF,PressureIn,WindDirection,WindDirectionDegrees,WindSpeedMPH,WindSpeedGustMPH,Humidity,HourlyPrecipIn,Conditions,Clouds,dailyrainin,SoftwareType,DateUTC
2013-06-29 00:00:00,71.5,70.0,29.72,West,273,4.0,5.0,95,1.71,,,0.07,Wunderground v.1.15,2013-06-29 04:00:00,
2013-06-29 00:05:00,71.3,69.8,29.69,West,272,6.0,8.0,95,1.30,,,0.15,Wunderground v.1.15,2013-06-29 04:05:00,
2013-06-29 00:10:00,71.2,69.7,29.69,West,271,5.0,5.0,95,1.16,,,0.24,Wunderground v.1.15,2013-06-29 04:10:00,
2013-06-29 00:15:00,71.2,70.0,29.69,West,278,4.0,5.0,96,0.78,,,0.30,Wunderground v.1.15,2013-06-29 04:15:00,
2013-06-29 00:20:00,71.0,69.5,29.66,West,281,1.0,1.0,95,0.60,,,0.37,Wunderground v.1.15,2013-06-29 04:20:00,
2013-06-29 00:25:00,70.8,69.3,29.65,WNW,282,1.0,1.0,95,0.23,,,0.39,Wunderground v.1.15,2013-06-29 04:25:00,
2013-06-29 00:30:00,70.7,69.2,29.65,WNW,282,0.0,0.0,95,0.15,,,0.40,Wunderground v.1.15,2013-06-29 04:30:00,
2013-06-29 00:35:00,70.7,69.5,29.64,WNW,282,0.0,0.0,96,0.14,,,0.41,Wunderground v.1.15,2013-06-29 04:35:00,
2013-06-29 00:40:00,70.6,69.4,29.64,WNW,282,0.0,0.0,96,0.10,,,0.42,Wunderground v.1.15,2013-06-29 04:40:00,
2013-06-29 00:45:00,70.6,69.4,29.68,West,276,0.0,6.0,96,0.13,,,0.44,Wunderground v.1.15,2013-06-29 04:45:00,
2013-06-29 00:55:00,70.6,69.4,29.70,WSW,240,5.0,5.0,96,1.62,,,0.64,Wunderground v.1.15,2013-06-29 04:55:00,
2013-06-29 01:00:00,70.4,69.2,29.69,WSW,240,2.0,2.0,96,0.96,,,0.68,Wunderground v.1.15,2013-06-29 05:00:00,
2013-06-29 01:05:00,70.3,69.1,29.69,WSW,240,0.0,2.0,96,0.29,,,0.71,Wunderground v.1.15,2013-06-29 05:05:00,
2013-06-29 01:15:00,70.2,69.0,29.68,WSW,240,0.0,0.0,96,0.20,,,0.74,Wunderground v.1.15,2013-06-29 05:15:00,
2013-06-29 01:25:00,70.2,69.0,29.67,WSW,240,0.0,0.0,96,0.16,,,0.77,Wunderground v.1.15,2013-06-29 05:25:00,
2013-06-29 01:35:00,70.1,68.9,29.68,WSW,240,0.0,0.0,96,0.11,,,0.79,Wunderground v.1.15,2013-06-29 05:35:00,
2013-06-29 01:40:00,70.1,68.9,29.68,WSW,240,0.0,0.0,96,0.20,,,0.80,Wunderground v.1.15,2013-06-29 05:40:00,
2013-06-29 01:50:00,70.1,68.9,29.67,WSW,240,0.0,0.0,96,0.18,,,0.84,Wunderground v.1.15,2013-06-29 05:50:00,
2013-06-29 01:55:00,70.1,68.9,29.66,WSW,240,0.0,0.0,96,0.17,,,0.85,Wunderground v.1.15,2013-06-29 05:55:00,
2013-06-29 02:00:00,70.1,68.9,29.66,WSW,240,0.0,0.0,96,0.12,,,0.86,Wunderground v.1.15,2013-06-29 06:00:00,
2013-06-29 02:05:00,70.1,68.9,29.65,WSW,240,0.0,0.0,96,0.09,,,0.86,Wunderground v.1.15,2013-06-29 06:05:00,
2013-06-29 02:15:00,70.1,68.9,29.65,WSW,240,0.0,0.0,96,0.04,,,0.86,Wunderground v.1.15,2013-06-29 06:15:00,
2013-06-29 02:25:00,69.9,68.7,29.64,WSW,240,0.0,0.0,96,0.00,,,0.86,Wunderground v.1.15,2013-06-29 06:25:00,
2013-06-29 02:35:00,70.0,68.8,29.64,WSW,240,0.0,0.0,96,0.00,,,0.86,Wunderground v.1.15,2013-06-29 06:35:00,
2013-06-29 02:45:00,70.0,69.1,29.63,WSW,240,0.0,0.0,97,0.00,,,0.86,Wunderground v.1.15,2013-06-29 06:45:00,
2013-06-29 02:55:00,70.0,69.1,29.63,WSW,240,0.0,0.0,97,0.00,,,0.86,Wunderground v.1.15,2013-06-29 06:55:00,
2013-06-29 03:00:00,69.9,68.7,29.63,WSW,240,0.0,0.0,96,0.00,,,0.86,Wunderground v.1.15,2013-06-29 07:00:00,
2013-06-29 03:05:00,69.9,69.0,29.63,WSW,240,0.0,0.0,97,0.00,,,0.86,Wunderground v.1.15,2013-06-29 07:05:00,
2013-06-29 03:15:00,69.9,69.0,29.63,WSW,240,0.0,0.0,97,0.00,,,0.86,Wunderground v.1.15,2013-06-29 07:15:00,
2013-06-29 03:25:00,69.9,69.0,29.63,WSW,240,0.0,0.0,97,0.00,,,0.86,Wunderground v.1.15,2013-06-29 07:25:00,
2013-06-29 03:30:00,69.9,69.0,29.63,WSW,240,0.0,0.0,97,0.00,,,0.86,Wunderground v.1.15,2013-06-29 07:30:00,
2013-06-29 03:40:00,69.7,68.8,29.63,WSW,240,0.0,0.0,97,0.00,,,0.86,Wunderground v.1.15,2013-06-29 07:40:00,
2013-06-29 03:45:00,69.6,68.4,29.63,WSW,240,0.0,0.0,96,0.00,,,0.86,Wunderground v.1.15,2013-06-29 07:45:00,
2013-06-29 03:55:00,69.6,68.7,29.63,WSW,240,0.0,0.0,97,0.00,,,0.86,Wunderground v.1.15,2013-06-29 07:55:00,
2013-06-29 04:05:00,69.6,68.7,29.63,WSW,240,0.0,0.0,97,0.00,,,0.86,Wunderground v.1.15,2013-06-29 08:05:00,
2013-06-29 04:15:00,69.5,68.6,29.63,WSW,240,0.0,0.0,97,0.00,,,0.86,Wunderground v.1.15,2013-06-29 08:15:00,
2013-06-29 04:20:00,69.4,68.5,29.63,WSW,240,0.0,0.0,97,0.00,,,0.86,Wunderground v.1.15,2013-06-29 08:20:00,
2013-06-29 04:30:00,69.3,68.4,29.64,WSW,240,0.0,0.0,97,0.00,,,0.86,Wunderground v.1.15,2013-06-29 08:30:00,
2013-06-29 04:40:00,69.1,68.2,29.64,WSW,240,0.0,0.0,97,0.00,,,0.86,Wunderground v.1.15,2013-06-29 08:40:00,
2013-06-29 04:45:00,69.0,68.1,29.64,WSW,240,0.0,0.0,97,0.00,,,0.86,Wunderground v.1.15,2013-06-29 08:45:00,
2013-06-29 04:55:00,69.0,68.1,29.64,WSW,240,0.0,0.0,97,0.00,,,0.86,Wunderground v.1.15,2013-06-29 08:55:00,
2013-06-29 05:05:00,69.0,68.1,29.64,WSW,240,0.0,0.0,97,0.00,,,0.86,Wunderground v.1.15,2013-06-29 09:05:00,
2013-06-29 05:15:00,69.2,68.3,29.65,WSW,240,0.0,0.0,97,0.00,,,0.86,Wunderground v.1.15,2013-06-29 09:15:00,
2013-06-29 05:25:00,69.4,68.5,29.65,WSW,240,0.0,0.0,97,0.00,,,0.86,Wunderground v.1.15,2013-06-29 09:25:00,
2013-06-29 05:30:00,69.4,68.5,29.65,WSW,240,0.0,0.0,97,0.00,,,0.87,Wunderground v.1.15,2013-06-29 09:30:00,
2013-06-29 05:40:00,69.3,68.4,29.66,WSW,240,0.0,0.0,97,0.00,,,0.87,Wunderground v.1.15,2013-06-29 09:40:00,
2013-06-29 05:45:00,69.2,68.3,29.66,SSW,195,0.0,0.0,97,0.00,,,0.87,Wunderground v.1.15,2013-06-29 09:45:00,
2013-06-29 05:55:00,69.2,68.3,29.66,SSW,195,0.0,0.0,97,0.00,,,0.87,Wunderground v.1.15,2013-06-29 09:55:00,
2013-06-29 06:05:00,69.2,68.3,29.66,SSW,195,0.0,0.0,97,0.00,,,0.87,Wunderground v.1.15,2013-06-29 10:05:00,
2013-06-29 06:15:00,69.2,68.3,29.66,SSW,195,0.0,0.0,97,0.00,,,0.87,Wunderground v.1.15,2013-06-29 10:15:00,
2013-06-29 06:25:00,69.2,68.3,29.66,ESE,104,0.0,0.0,97,0.00,,,0.87,Wunderground v.1.15,2013-06-29 10:25:00,
2013-06-29 06:35:00,69.3,68.4,29.67,ESE,109,0.0,0.0,97,0.00,,,0.87,Wunderground v.1.15,2013-06-29 10:35:00,
2013-06-29 06:45:00,69.4,68.5,29.67,ESE,109,0.0,0.0,97,0.00,,,0.87,Wunderground v.1.15,2013-06-29 10:45:00,
2013-06-29 06:55:00,69.5,68.6,29.67,SSW,192,0.0,0.0,97,0.00,,,0.87,Wunderground v.1.15,2013-06-29 10:55:00,
2013-06-29 07:05:00,69.7,68.8,29.67,WSW,238,0.0,0.0,97,0.00,,,0.87,Wunderground v.1.15,2013-06-29 11:05:00,
2013-06-29 07:15:00,69.8,68.9,29.68,WSW,238,0.0,0.0,97,0.00,,,0.87,Wunderground v.1.15,2013-06-29 11:15:00,
2013-06-29 07:25:00,70.0,69.1,29.68,WSW,238,0.0,0.0,97,0.00,,,0.87,Wunderground v.1.15,2013-06-29 11:25:00,
2013-06-29 07:35:00,70.0,69.1,29.68,SW,216,1.0,1.0,97,0.00,,,0.87,Wunderground v.1.15,2013-06-29 11:35:00,
2013-06-29 07:40:00,70.1,69.2,29.68,SW,216,0.0,0.0,97,0.00,,,0.87,Wunderground v.1.15,2013-06-29 11:40:00,
2013-06-29 07:50:00,70.1,69.2,29.68,SW,216,0.0,0.0,97,0.00,,,0.87,Wunderground v.1.15,2013-06-29 11:50:00,
2013-06-29 08:00:00,70.3,69.4,29.68,SSE,150,0.0,0.0,97,0.00,,,0.87,Wunderground v.1.15,2013-06-29 12:00:00,
2013-06-29 08:05:00,70.3,69.4,29.68,ESE,112,0.0,0.0,97,0.00,,,0.87,Wunderground v.1.15,2013-06-29 12:05:00,
2013-06-29 08:15:00,70.4,69.5,29.69,South,179,0.0,0.0,97,0.00,,,0.87,Wunderground v.1.15,2013-06-29 12:15:00,
2013-06-29 08:25:00,70.6,69.7,29.69,South,180,0.0,0.0,97,0.00,,,0.87,Wunderground v.1.15,2013-06-29 12:25:00,
2013-06-29 08:30:00,70.7,69.8,29.69,South,176,0.0,0.0,97,0.00,,,0.87,Wunderground v.1.15,2013-06-29 12:30:00,
2013-06-29 08:35:00,70.8,69.9,29.69,South,176,0.0,0.0,97,0.00,,,0.87,Wunderground v.1.15,2013-06-29 12:35:00,
2013-06-29 08:40:00,70.9,70.0,29.69,South,176,0.0,0.0,97,0.00,,,0.87,Wunderground v.1.15,2013-06-29 12:40:00,
2013-06-29 08:50:00,70.9,70.0,29.69,South,176,0.0,0.0,97,0.00,,,0.87,Wunderground v.1.15,2013-06-29 12:50:00,
2013-06-29 09:00:00,71.6,70.7,29.69,South,176,0.0,0.0,97,0.00,,,0.87,Wunderground v.1.15,2013-06-29 13:00:00,
2013-06-29 09:05:00,71.7,70.8,29.69,South,179,0.0,0.0,97,0.00,,,0.87,Wunderground v.1.15,2013-06-29 13:05:00,
2013-06-29 09:15:00,72.0,71.1,29.70,South,179,0.0,0.0,97,0.00,,,0.87,Wunderground v.1.15,2013-06-29 13:15:00,
2013-06-29 09:20:00,72.1,71.2,29.69,South,181,0.0,0.0,97,0.00,,,0.87,Wunderground v.1.15,2013-06-29 13:20:00,
2013-06-29 09:30:00,72.3,71.4,29.70,South,182,1.0,1.0,97,0.00,,,0.87,Wunderground v.1.15,2013-06-29 13:30:00,
2013-06-29 09:40:00,72.6,71.7,29.70,South,191,0.0,0.0,97,0.00,,,0.87,Wunderground v.1.15,2013-06-29 13:40:00,
2013-06-29 09:45:00,72.8,71.9,29.70,South,191,0.0,0.0,97,0.00,,,0.88,Wunderground v.1.15,2013-06-29 13:45:00,
2013-06-29 09:55:00,72.9,72.0,29.70,South,181,0.0,0.0,97,0.00,,,0.88,Wunderground v.1.15,2013-06-29 13:55:00,
2013-06-29 10:05:00,73.3,72.4,29.69,SSE,155,0.0,2.0,97,0.00,,,0.88,Wunderground v.1.15,2013-06-29 14:05:00,
2013-06-29 10:15:00,73.7,72.8,29.69,South,186,1.0,1.0,97,0.00,,,0.88,Wunderground v.1.15,2013-06-29 14:15:00,
2013-06-29 10:25:00,73.9,73.0,29.69,South,185,1.0,3.0,97,0.00,,,0.88,Wunderground v.1.15,2013-06-29 14:25:00,
2013-06-29 10:30:00,74.0,72.8,29.69,SW,231,1.0,2.0,96,0.00,,,0.88,Wunderground v.1.15,2013-06-29 14:30:00,
2013-06-29 10:40:00,74.2,73.0,29.69,SW,218,1.0,3.0,96,0.00,,,0.88,Wunderground v.1.15,2013-06-29 14:40:00,
2013-06-29 10:45:00,74.1,72.9,29.70,SW,218,2.0,3.0,96,0.00,,,0.88,Wunderground v.1.15,2013-06-29 14:45:00,
2013-06-29 10:50:00,74.3,73.1,29.70,SSW,207,1.0,1.0,96,0.00,,,0.88,Wunderground v.1.15,2013-06-29 14:50:00,
2013-06-29 11:00:00,74.4,73.2,29.70,South,173,1.0,1.0,96,0.00,,,0.88,Wunderground v.1.15,2013-06-29 15:00:00,
2013-06-29 11:05:00,74.5,73.0,29.70,SSW,192,1.0,1.0,95,0.00,,,0.88,Wunderground v.1.15,2013-06-29 15:05:00,
2013-06-29 11:15:00,74.6,73.1,29.70,SW,228,1.0,2.0,95,0.00,,,0.88,Wunderground v.1.15,2013-06-29 15:15:00,
2013-06-29 11:20:00,74.7,73.2,29.70,SW,228,1.0,3.0,95,0.19,,,0.90,Wunderground v.1.15,2013-06-29 15:20:00,
2013-06-29 11:30:00,75.2,73.7,29.70,WSW,242,1.0,1.0,95,0.06,,,0.91,Wunderground v.1.15,2013-06-29 15:30:00,
2013-06-29 11:40:00,75.7,74.2,29.70,SW,234,1.0,1.0,95,0.00,,,0.91,Wunderground v.1.15,2013-06-29 15:40:00,
2013-06-29 11:50:00,76.4,74.5,29.70,South,181,2.0,2.0,94,0.00,,,0.91,Wunderground v.1.15,2013-06-29 15:50:00,
2013-06-29 11:55:00,76.6,74.4,29.70,SSW,192,2.0,2.0,93,0.00,,,0.91,Wunderground v.1.15,2013-06-29 15:55:00,
2013-06-29 12:05:00,77.0,74.2,29.70,SSW,196,1.0,1.0,91,0.00,,,0.91,Wunderground v.1.15,2013-06-29 16:05:00,
2013-06-29 12:15:00,77.8,75.0,29.70,SW,220,1.0,4.0,91,0.00,,,0.91,Wunderground v.1.15,2013-06-29 16:15:00,
2013-06-29 12:25:00,78.0,74.5,29.70,SSW,208,2.0,2.0,89,0.00,,,0.91,Wunderground v.1.15,2013-06-29 16:25:00,
2013-06-29 12:30:00,78.5,75.0,29.70,SSW,207,1.0,2.0,89,0.00,,,0.91,Wunderground v.1.15,2013-06-29 16:30:00,
2013-06-29 12:40:00,78.7,74.8,29.70,WSW,239,3.0,3.0,88,0.00,,,0.91,Wunderground v.1.15,2013-06-29 16:40:00,
2013-06-29 12:45:00,78.6,73.7,29.70,SW,219,2.0,3.0,85,0.00,,,0.91,Wunderground v.1.15,2013-06-29 16:45:00,
2013-06-29 12:55:00,79.1,74.2,29.70,SW,228,1.0,1.0,85,0.00,,,0.91,Wunderground v.1.15,2013-06-29 16:55:00,
2013-06-29 13:05:00,79.5,74.9,29.70,SSW,203,1.0,2.0,86,0.00,,,0.91,Wunderground v.1.15,2013-06-29 17:05:00,
2013-06-29 13:15:00,79.9,73.5,29.70,SSW,206,2.0,8.0,81,0.00,,,0.91,Wunderground v.1.15,2013-06-29 17:15:00,
2013-06-29 13:25:00,80.4,74.0,29.69,WSW,240,1.0,2.0,81,0.00,,,0.91,Wunderground v.1.15,2013-06-29 17:25:00,
2013-06-29 13:30:00,80.6,73.5,29.69,WSW,240,1.0,1.0,79,0.00,,,0.91,Wunderground v.1.15,2013-06-29 17:30:00,
2013-06-29 13:40:00,81.3,74.2,29.69,South,188,1.0,3.0,79,0.00,,,0.91,Wunderground v.1.15,2013-06-29 17:40:00,
2013-06-29 13:45:00,81.2,74.4,29.69,SSW,202,1.0,3.0,80,0.00,,,0.91,Wunderground v.1.15,2013-06-29 17:45:00,
2013-06-29 13:50:00,81.5,74.4,29.69,SW,236,2.0,2.0,79,0.00,,,0.91,Wunderground v.1.15,2013-06-29 17:50:00,
2013-06-29 14:00:00,81.5,74.4,29.69,SSW,212,1.0,4.0,79,0.00,,,0.91,Wunderground v.1.15,2013-06-29 18:00:00,
2013-06-29 14:05:00,81.8,74.3,29.69,SE,132,2.0,4.0,78,0.00,,,0.91,Wunderground v.1.15,2013-06-29 18:05:00,
2013-06-29 14:15:00,81.8,74.3,29.69,South,189,1.0,2.0,78,0.00,,,0.91,Wunderground v.1.15,2013-06-29 18:15:00,
2013-06-29 14:25:00,82.1,73.8,29.69,SSW,195,1.0,1.0,76,0.00,,,0.91,Wunderground v.1.15,2013-06-29 18:25:00,
2013-06-29 14:35:00,82.1,74.6,29.69,SSW,211,1.0,6.0,78,0.00,,,0.91,Wunderground v.1.15,2013-06-29 18:35:00,
2013-06-29 14:45:00,82.4,74.1,29.69,SSW,202,1.0,1.0,76,0.00,,,0.91,Wunderground v.1.15,2013-06-29 18:45:00,
2013-06-29 14:50:00,82.3,74.4,29.68,SSW,202,1.0,1.0,77,0.00,,,0.91,Wunderground v.1.15,2013-06-29 18:50:00,
2013-06-29 15:00:00,82.4,75.6,29.68,SSW,200,1.0,1.0,80,0.00,,,0.91,Wunderground v.1.15,2013-06-29 19:00:00,
2013-06-29 15:05:00,82.7,74.8,29.68,SSW,202,1.0,1.0,77,0.00,,,0.91,Wunderground v.1.15,2013-06-29 19:05:00,
2013-06-29 15:15:00,83.4,75.4,29.68,SW,233,2.0,5.0,77,0.00,,,0.91,Wunderground v.1.15,2013-06-29 19:15:00,
2013-06-29 15:25:00,83.9,74.7,29.68,SSW,211,2.0,2.0,74,0.00,,,0.91,Wunderground v.1.15,2013-06-29 19:25:00,
2013-06-29 15:35:00,83.3,75.3,29.68,SSW,212,0.0,1.0,77,0.00,,,0.91,Wunderground v.1.15,2013-06-29 19:35:00,
2013-06-29 15:40:00,83.7,75.3,29.68,SSW,212,0.0,0.0,76,0.00,,,0.91,Wunderground v.1.15,2013-06-29 19:40:00,
2013-06-29 15:50:00,84.2,75.8,29.68,South,180,1.0,1.0,76,0.00,,,0.91,Wunderground v.1.15,2013-06-29 19:50:00,
2013-06-29 16:00:00,84.6,75.0,29.68,SE,143,2.0,2.0,73,0.00,,,0.91,Wunderground v.1.15,2013-06-29 20:00:00,
2013-06-29 16:05:00,84.9,74.9,29.68,South,169,1.0,6.0,72,0.00,,,0.91,Wunderground v.1.15,2013-06-29 20:05:00,
2013-06-29 16:15:00,85.0,75.0,29.68,SSE,159,1.0,4.0,72,0.00,,,0.91,Wunderground v.1.15,2013-06-29 20:15:00,
2013-06-29 16:25:00,84.8,74.3,29.68,South,186,1.0,2.0,71,0.00,,,0.91,Wunderground v.1.15,2013-06-29 20:25:00,
2013-06-29 16:30:00,84.7,74.3,29.69,South,182,0.0,1.0,71,0.00,,,0.91,Wunderground v.1.15,2013-06-29 20:30:00,
2013-06-29 16:35:00,84.3,74.7,29.69,South,178,1.0,1.0,73,0.00,,,0.91,Wunderground v.1.15,2013-06-29 20:35:00,
2013-06-29 16:40:00,84.1,74.9,29.69,ESE,103,1.0,1.0,74,0.00,,,0.91,Wunderground v.1.15,2013-06-29 20:40:00,
2013-06-29 16:50:00,83.9,74.3,29.68,SSE,149,0.0,0.0,73,0.00,,,0.91,Wunderground v.1.15,2013-06-29 20:50:00,
2013-06-29 17:00:00,84.3,75.1,29.68,SSE,153,0.0,0.0,74,0.00,,,0.91,Wunderground v.1.15,2013-06-29 21:00:00,
2013-06-29 17:05:00,84.6,74.2,29.68,SSE,153,1.0,1.0,71,0.00,,,0.91,Wunderground v.1.15,2013-06-29 21:05:00,
2013-06-29 17:15:00,85.0,75.4,29.68,SE,134,0.0,1.0,73,0.00,,,0.91,Wunderground v.1.15,2013-06-29 21:15:00,
2013-06-29 17:20:00,85.0,75.0,29.68,SSE,157,1.0,1.0,72,0.00,,,0.91,Wunderground v.1.15,2013-06-29 21:20:00,
2013-06-29 17:30:00,84.2,75.4,29.68,SSE,159,0.0,2.0,75,0.00,,,0.91,Wunderground v.1.15,2013-06-29 21:30:00,
2013-06-29 17:40:00,84.1,75.7,29.68,SSE,165,1.0,1.0,76,0.00,,,0.91,Wunderground v.1.15,2013-06-29 21:40:00,
2013-06-29 17:50:00,84.8,76.4,29.68,South,185,3.0,3.0,76,0.00,,,0.91,Wunderground v.1.15,2013-06-29 21:50:00,
2013-06-29 18:00:00,84.3,75.1,29.68,South,186,4.0,11.0,74,0.00,,,0.91,Wunderground v.1.15,2013-06-29 22:00:00,
2013-06-29 18:05:00,84.1,75.3,29.68,SE,135,5.0,11.0,75,0.00,,,0.91,Wunderground v.1.15,2013-06-29 22:05:00,
2013-06-29 18:15:00,83.9,75.9,29.68,SSW,193,2.0,3.0,77,0.00,,,0.91,Wunderground v.1.15,2013-06-29 22:15:00,
2013-06-29 18:25:00,84.0,75.6,29.68,SSE,153,0.0,6.0,76,0.00,,,0.91,Wunderground v.1.15,2013-06-29 22:25:00,
2013-06-29 18:35:00,84.3,75.9,29.68,SSE,161,1.0,1.0,76,0.00,,,0.91,Wunderground v.1.15,2013-06-29 22:35:00,
2013-06-29 18:40:00,84.4,76.0,29.68,SE,142,2.0,2.0,76,0.00,,,0.91,Wunderground v.1.15,2013-06-29 22:40:00,
2013-06-29 18:50:00,84.1,76.1,29.68,South,173,2.0,2.0,77,0.00,,,0.91,Wunderground v.1.15,2013-06-29 22:50:00,
2013-06-29 19:00:00,83.7,75.7,29.69,SSE,167,1.0,1.0,77,0.00,,,0.91,Wunderground v.1.15,2013-06-29 23:00:00,
2013-06-29 19:05:00,83.4,75.8,29.69,South,175,1.0,1.0,78,0.00,,,0.91,Wunderground v.1.15,2013-06-29 23:05:00,
2013-06-29 19:15:00,83.0,75.8,29.69,SE,134,1.0,1.0,79,0.00,,,0.91,Wunderground v.1.15,2013-06-29 23:15:00,
2013-06-29 19:25:00,82.7,75.5,29.69,SE,142,0.0,5.0,79,0.00,,,0.91,Wunderground v.1.15,2013-06-29 23:25:00,
2013-06-29 19:30:00,82.5,75.3,29.70,SE,129,0.0,0.0,79,0.00,,,0.91,Wunderground v.1.15,2013-06-29 23:30:00,
2013-06-29 19:40:00,82.1,74.9,29.70,SE,138,0.0,0.0,79,0.00,,,0.91,Wunderground v.1.15,2013-06-29 23:40:00,
2013-06-29 19:45:00,82.0,75.2,29.70,SSE,147,0.0,0.0,80,0.00,,,0.91,Wunderground v.1.15,2013-06-29 23:45:00,
2013-06-29 19:55:00,81.6,74.8,29.70,ENE,67,0.0,0.0,80,0.00,,,0.91,Wunderground v.1.15,2013-06-29 23:55:00,
2013-06-29 20:00:00,81.4,75.0,29.70,ENE,67,0.0,0.0,81,0.00,,,0.91,Wunderground v.1.15,2013-06-30 00:00:00,
2013-06-29 20:05:00,81.2,74.8,29.70,SSE,165,0.0,0.0,81,0.00,,,0.91,Wunderground v.1.15,2013-06-30 00:05:00,
2013-06-29 20:15:00,80.8,74.4,29.70,SSE,162,1.0,1.0,81,0.00,,,0.91,Wunderground v.1.15,2013-06-30 00:15:00,
2013-06-29 20:25:00,80.5,74.5,29.71,SSE,165,1.0,1.0,82,0.00,,,0.91,Wunderground v.1.15,2013-06-30 00:25:00,
2013-06-29 20:30:00,80.3,74.3,29.71,SSE,165,1.0,1.0,82,0.00,,,0.91,Wunderground v.1.15,2013-06-30 00:30:00,
2013-06-29 20:35:00,80.1,74.5,29.71,SSE,167,1.0,1.0,83,0.00,,,0.91,Wunderground v.1.15,2013-06-30 00:35:00,
2013-06-29 20:45:00,79.8,74.2,29.71,SSE,167,0.0,0.0,83,0.00,,,0.91,Wunderground v.1.15,2013-06-30 00:45:00,
2013-06-29 20:50:00,79.6,74.0,29.71,SSE,167,0.0,0.0,83,0.00,,,0.91,Wunderground v.1.15,2013-06-30 00:50:00,
2013-06-29 21:00:00,79.3,74.0,29.71,SSE,167,0.0,0.0,84,0.00,,,0.91,Wunderground v.1.15,2013-06-30 01:00:00,
2013-06-29 21:05:00,79.1,73.8,29.72,SSE,167,0.0,0.0,84,0.00,,,0.91,Wunderground v.1.15,2013-06-30 01:05:00,
2013-06-29 21:15:00,78.7,73.8,29.72,SSE,167,0.0,0.0,85,0.00,,,0.91,Wunderground v.1.15,2013-06-30 01:15:00,
2013-06-29 21:25:00,78.5,74.0,29.73,SSE,165,0.0,0.0,86,0.00,,,0.91,Wunderground v.1.15,2013-06-30 01:25:00,
2013-06-29 21:35:00,78.3,73.8,29.73,SSE,161,1.0,1.0,86,0.00,,,0.91,Wunderground v.1.15,2013-06-30 01:35:00,
2013-06-29 21:45:00,78.1,73.9,29.73,SSE,161,0.0,0.0,87,0.00,,,0.91,Wunderground v.1.15,2013-06-30 01:45:00,
2013-06-29 21:55:00,77.8,74.0,29.74,SSE,161,0.0,0.0,88,0.00,,,0.91,Wunderground v.1.15,2013-06-30 01:55:00,
2013-06-29 22:05:00,77.3,73.8,29.74,SSE,161,0.0,0.0,89,0.00,,,0.91,Wunderground v.1.15,2013-06-30 02:05:00,
2013-06-29 22:15:00,77.0,73.8,29.74,ESE,117,1.0,1.0,90,0.00,,,0.91,Wunderground v.1.15,2013-06-30 02:15:00,
2013-06-29 22:25:00,76.7,73.5,29.74,SSE,165,1.0,1.0,90,0.00,,,0.91,Wunderground v.1.15,2013-06-30 02:25:00,
2013-06-29 22:30:00,76.5,73.0,29.74,SSE,165,1.0,1.0,89,0.00,,,0.91,Wunderground v.1.15,2013-06-30 02:30:00,
2013-06-29 22:40:00,76.3,72.8,29.75,SSE,166,2.0,2.0,89,0.00,,,0.91,Wunderground v.1.15,2013-06-30 02:40:00,
2013-06-29 22:45:00,76.2,72.7,29.75,SSE,162,2.0,4.0,89,0.00,,,0.91,Wunderground v.1.15,2013-06-30 02:45:00,
2013-06-29 22:55:00,75.9,72.8,29.75,SSE,164,3.0,4.0,90,0.00,,,0.91,Wunderground v.1.15,2013-06-30 02:55:00,
2013-06-29 23:05:00,75.8,72.7,29.76,South,175,1.0,4.0,90,0.00,,,0.91,Wunderground v.1.15,2013-06-30 03:05:00,
2013-06-29 23:15:00,75.5,72.7,29.76,South,172,1.0,1.0,91,0.00,,,0.91,Wunderground v.1.15,2013-06-30 03:15:00,
2013-06-29 23:25:00,75.4,72.6,29.76,South,172,1.0,4.0,91,0.00,,,0.91,Wunderground v.1.15,2013-06-30 03:25:00,
2013-06-29 23:30:00,75.3,72.5,29.76,South,172,0.0,0.0,91,0.00,,,0.91,Wunderground v.1.15,2013-06-30 03:30:00,
2013-06-29 23:35:00,75.2,72.4,29.76,South,172,0.0,0.0,91,0.00,,,0.91,Wunderground v.1.15,2013-06-30 03:35:00,
2013-06-29 23:45:00,75.0,72.5,29.76,South,172,0.0,0.0,92,0.00,,,0.91,Wunderground v.1.15,2013-06-30 03:45:00,
2013-06-29 23:55:00,74.9,72.4,29.76,South,169,0.0,0.0,92,0.00,,,0.00,Wunderground v.1.15,2013-06-30 03:55:00,